Location: Larrial
(48.2758°N, 4.5331°W)
Time: 14:07:26
(UTC+00:00)

Cosmos 2369 - Pass Details

Date: 09 April 2020
Orbit: 840 x 855 km, 71.0° (Epoch: 02 June)

Event Time Altitude Azimuth Distance (km) Brightness Sun altitude
Rises 21:05:29 0° 334° (NNW) 3,406 8.0 -19.4°
Reaches altitude 10° 21:08:03 10° 341° (NNW) 2,467 6.9 -19.8°
Maximum altitude 21:13:29 46° 54° (NE) 1,119 4.2 -20.5°
Enters shadow 21:15:10 36° 98° (E) 1,309 4.2 -20.7°
